Location: Hurstbourne Priors
(51.2000°N, 1.3667°W)
Time: 18:52:13
(UTC+00:00)

Transit 4A - Pass Details

Date: 20 April 2021
Orbit: 870 x 974 km, 66.8° (Epoch: 09 May)

Event Time Altitude Azimuth Distance (km) Brightness Sun altitude
Rises 02:41:31 0° 275° (W) 3,600 - -18.6°
Exits shadow 02:43:05 - 282° (WNW) 3,106 10.4 -18.4°
Reaches altitude 10° 02:44:42 10° 290° (WNW) 2,638 10.1 -18.3°
Maximum altitude 02:49:23 22° 341° (NNW) 1,887 9.8 -17.8°
Drops below altitude 10° 02:53:59 10° 31° (NNE) 2,587 11.5 -17.3°
Sets 02:57:05 0° 46° (NE) 3,512 12.7 -16.9°
